Location: Poughquag
(41.6090°N, 73.6820°W)
Time: 11:58:10
(UTC-04:00)

Tiros 1 - Pass Details

Date: 30 May 2020
Orbit: 630 x 664 km, 48.4° (Epoch: 06 July)

Event Time Altitude Azimuth Distance (km) Brightness Sun altitude
Rises 11:31:08 0° 179° (S) 2,967 10.8 63.9°
Reaches altitude 10° 11:35:35 10° 141° (SE) 2,053 10.3 64.5°
Maximum altitude 11:36:30 11° 129° (SE) 2,018 10.3 64.7°
Drops below altitude 10° 11:37:26 10° 118° (ESE) 2,051 10.3 64.8°
Sets 11:41:51 0° 79° (E) 2,957 10.7 65.3°
